Location: Baptist Memorial Hospital
(34.4976°N, 89.0284°W)
Time: 14:54:34
(UTC+00:00)

Daily predictions for brighter satellites

Satellite Brightness Start Highest point End
(mag) Time Altitude Azimuth Time Altitude Azimuth Time Altitude Azimuth
Aureole 3 Rocket 3.3 23:24:11 10° SSE 23:27:47 48° E 23:32:36 10° NNE
NOAA 12 4.1 23:23:12 10° SSE 23:28:27 74° ENE 23:33:45 10° N
NOSS 3-3 (A) 4.0 23:23:30 10° SSW 23:28:58 56° ESE 23:34:58 10° NE
NOSS 3-3 (C) 4.0 23:23:37 10° SSW 23:29:05 55° ESE 23:35:05 10° NE
SAR-Lupe-4 3.9 23:26:49 10° NNE 23:30:15 42° E 23:33:39 10° S
Cosmos 1400 Rocket 2.8 23:27:08 10° S 23:31:13 67° E 23:35:16 10° NNE
CZ-4B R/B 3.4 23:27:33 10° SSE 23:33:11 84° WSW 23:38:44 10° NNW
Cosmos 2369 4.3 23:30:48 10° S 23:36:00 37° ESE 23:41:12 10° NE
GPS 2-04 Rocket1 3.0 23:33:17 10° WSW 23:37:12 58° SSE 23:41:13 10° E
H-2A R/B 4.2 23:34:01 10° NNW 23:37:29 27° WNW 23:40:56 10° SW
ERS-2 2.6 23:35:26 10° N 23:39:02 63° WNW 23:42:38 10° SSW
COSMO-SKYMED 1 2.9 23:35:55 10° NNE 23:40:06 46° E 23:44:15 10° S
Helios 1A Rocket 4.2 23:37:43 10° ESE 23:40:42 20° ENE 23:43:41 10° NNE
Delta 2 Rocket 4.3 23:36:10 10° W 23:41:05 63° SSW 23:46:31 10° ESE
OAO 2 Rocket 3.3 23:37:15 10° W 23:42:19 88° NNW 23:46:58 12° E
CZ-2D R/B 4.4 23:41:59 10° SE 23:45:00 23° ENE 23:48:00 10° NNE
Cosmos 1244 Rocket 4.5 23:39:27 10° N 23:45:40 65° E 23:51:53 10° SSE
Envisat 4.5 23:40:57 10° S 23:45:44 42° W 23:50:34 10° NNW
Cosmos 1825 Rocket 4.5 23:41:59 10° NNW 23:46:18 54° W 23:50:34 10° S
YAOGAN 1 4.0 23:43:59 10° ESE 23:46:46 17° ENE 23:49:33 10° NNE
SAR-Lupe-1 3.9 23:44:32 10° NNE 23:48:04 73° E 23:51:35 10° S
Cosmos 1340 2.8 23:45:21 10° N 23:49:02 49° E 23:52:42 10° SSE
OAO 1 Rocket 4.5 23:43:57 10° W 23:49:20 86° N 23:53:59 14° E
Cosmos 2227 Rocket 2.5 23:44:44 10° N 23:50:06 42° ENE 23:55:25 10° SE
CZ-4 R/B 2.6 23:47:55 10° ESE 23:50:44 20° ENE 23:53:33 10° NNE
Okean O Rocket 2.7 23:50:22 10° S 23:54:35 50° W 23:58:50 10° NNW
